| time (UTC) | temp C | wind direction | speed KPH | gust KPH | rain 1hr cm | rain 24hr cm | rain mn cm | humidity % | barometer mb |
| 20260507101518 | 9 | 325 | 24.1 | 0.0 | 0.00 | 0.00 | 0.28 | 79 | 1004.5 |
| 20260507101007 | 9 | 325 | 20.9 | 0.0 | 0.00 | 0.00 | 0.28 | 78 | 1004.2 |
| 20260507100445 | 9 | 308 | 24.1 | 0.0 | 0.00 | 0.00 | 0.28 | 78 | 1004.2 |
| 20260507095936 | 9 | 318 | 27.4 | 0.0 | 0.00 | 0.00 | 0.28 | 79 | 1004.2 |
| 20260507095523 | 9 | 327 | 29.0 | 0.0 | 0.00 | 0.00 | 0.28 | 78 | 1004.2 |
| 20260507095001 | 9 | 325 | 24.1 | 0.0 | 0.00 | 0.00 | 0.28 | 79 | 1004.2 |
| 20260507094451 | 9 | 332 | 22.5 | 0.0 | 0.00 | 0.00 | 0.28 | 79 | 1004.2 |
| 20260507094048 | 9 | 302 | 20.9 | 0.0 | 0.00 | 0.00 | 0.28 | 80 | 1004.0 |
| 20260507093522 | 9 | 303 | 14.5 | 0.0 | 0.00 | 0.00 | 0.28 | 81 | 1004.0 |
| 20260507092933 | 10 | 299 | 16.1 | 0.0 | 0.00 | 0.00 | 0.28 | 83 | 1004.1 |
| 20260507092511 | 10 | 263 | 19.3 | 0.0 | 0.00 | 0.00 | 0.28 | 83 | 1003.5 |
| 20260507092012 | 10 | 322 | 20.9 | 0.0 | 0.00 | 0.00 | 0.28 | 82 | 1003.5 |
| 20260507091453 | 10 | 277 | 22.5 | 0.0 | 0.00 | 0.00 | 0.25 | 84 | 1003.5 |
| 20260507090944 | 10 | 294 | 20.9 | 0.0 | 0.00 | 0.00 | 0.25 | 85 | 1003.6 |
| 20260507090527 | 10 | 309 | 11.3 | 0.0 | 0.00 | 0.00 | 0.23 | 85 | 1003.6 |
| 20260507090014 | 10 | 318 | 0.0 | 0.0 | 0.00 | 0.00 | 0.23 | 88 | 1003.6 |
| 20260507085503 | 10 | 105 | 0.0 | 0.0 | 0.00 | 0.00 | 0.23 | 89 | 1003.9 |
| 20260507085020 | 10 | 105 | 0.0 | 0.0 | 0.00 | 0.00 | 0.20 | 89 | 1003.9 |
| 20260507084457 | 10 | 105 | 0.0 | 0.0 | 0.00 | 0.00 | 0.18 | 90 | 1003.9 |
| 20260507083937 | 10 | 105 | 0.0 | 0.0 | 0.00 | 0.00 | 0.18 | 90 | 1003.5 |
| 20260507083522 | 10 | 105 | 0.0 | 0.0 | 0.00 | 0.00 | 0.15 | 90 | 1003.5 |
| 20260507083000 | 10 | 105 | 0.0 | 0.0 | 0.00 | 0.00 | 0.13 | 89 | 1003.5 |
| 20260507082444 | 10 | 105 | 0.0 | 0.0 | 0.00 | 0.00 | 0.10 | 89 | 1003.9 |
| 20260507082025 | 10 | 105 | 0.0 | 0.0 | 0.00 | 0.00 | 0.10 | 89 | 1003.9 |
| 20260507081453 | 10 | 105 | 0.0 | 0.0 | 0.00 | 0.00 | 0.08 | 88 | 1003.9 |
| 20260507081029 | 10 | 105 | 0.0 | 0.0 | 0.00 | 0.00 | 0.08 | 88 | 1003.5 |
| 20260507080453 | 10 | 105 | 0.0 | 0.0 | 0.00 | 0.00 | 0.08 | 87 | 1003.5 |
| 20260507075930 | 10 | 105 | 0.0 | 0.0 | 0.00 | 0.00 | 0.05 | 87 | 1003.5 |
| 20260507075507 | 10 | 105 | 0.0 | 0.0 | 0.00 | 0.00 | 0.03 | 86 | 1003.3 |
| 20260507074934 | 11 | 105 | 0.0 | 0.0 | 0.00 | 0.00 | 0.00 | 84 | 1003.3 |
| 20260507074529 | 11 | 105 | 0.0 | 0.0 | 0.00 | 0.00 | 0.00 | 83 | 1003.3 |
| 20260507074010 | 11 | 105 | 0.0 | 0.0 | 0.00 | 0.00 | 0.00 | 86 | 1002.9 |
| 20260507073450 | 11 | 105 | 0.0 | 0.0 | 0.00 | 0.00 | 0.00 | 86 | 1002.9 |
| 20260507073021 | 11 | 105 | 0.0 | 0.0 | 0.00 | 0.00 | 0.00 | 86 | 1002.9 |
| 20260507072017 | 11 | 105 | 0.0 | 0.0 | 0.00 | 0.00 | 0.00 | 86 | 1002.6 |
| 20260507071438 | 11 | 105 | 0.0 | 0.0 | 0.00 | 0.00 | 0.00 | 88 | 1002.6 |
| 20260507071006 | 11 | 105 | 0.0 | 0.0 | 0.00 | 0.00 | 0.00 | 87 | 1002.6 |
| 20260507070528 | 11 | 105 | 0.0 | 0.0 | 0.00 | 0.00 | 0.00 | 87 | 1002.6 |
| 20260507065958 | 12 | 105 | 0.0 | 0.0 | 0.00 | 0.00 | 0.00 | 87 | 1002.6 |
| 20260507065527 | 12 | 105 | 0.0 | 0.0 | 0.00 | 0.00 | 0.00 | 86 | 1002.9 |
| 20260507065027 | 12 | 105 | 0.0 | 0.0 | 0.00 | 0.00 | 0.00 | 86 | 1002.9 |
| 20260507064452 | 11 | 105 | 0.0 | 0.0 | 0.00 | 0.00 | 0.00 | 87 | 1002.9 |
| 20260507064048 | 11 | 105 | 0.0 | 0.0 | 0.00 | 0.00 | 0.00 | 87 | 1002.5 |
| 20260507062958 | 12 | 105 | 1.6 | 0.0 | 0.00 | 0.00 | 0.00 | 87 | 1002.5 |
| 20260507062444 | 12 | 105 | 8.0 | 0.0 | 0.00 | 0.00 | 0.00 | 87 | 1002.7 |
| 20260507061932 | 12 | 303 | 11.3 | 0.0 | 0.00 | 0.00 | 0.00 | 84 | 1002.7 |
| 20260507061516 | 12 | 298 | 6.4 | 0.0 | 0.00 | 0.00 | 0.00 | 86 | 1002.7 |
| 20260507061026 | 12 | 303 | 3.2 | 0.0 | 0.00 | 0.00 | 0.00 | 85 | 1002.9 |
| 20260507060436 | 12 | 105 | 0.0 | 0.0 | 0.00 | 0.00 | 0.00 | 89 | 1002.9 |
| 20260507055949 | 12 | 105 | 0.0 | 0.0 | 0.00 | 0.00 | 0.00 | 89 | 1002.9 |
| 20260507055432 | 12 | 105 | 0.0 | 0.0 | 0.00 | 0.00 | 0.00 | 89 | 1003.0 |
| 20260507054938 | 12 | 105 | 0.0 | 0.0 | 0.00 | 0.00 | 0.00 | 91 | 1003.0 |
| 20260507054441 | 12 | 105 | 0.0 | 0.0 | 0.00 | 0.00 | 0.00 | 88 | 1003.0 |
| 20260507053949 | 13 | 105 | 0.0 | 0.0 | 0.00 | 0.00 | 0.00 | 89 | 1003.0 |
| 20260507053436 | 13 | 105 | 0.0 | 0.0 | 0.00 | 0.00 | 0.00 | 90 | 1003.0 |
| 20260507052946 | 14 | 105 | 0.0 | 0.0 | 0.00 | 0.00 | 0.00 | 91 | 1003.0 |
| 20260507052436 | 14 | 105 | 0.0 | 0.0 | 0.00 | 0.00 | 0.00 | 93 | 1003.0 |
| 20260507051949 | 13 | 105 | 0.0 | 0.0 | 0.00 | 0.00 | 0.00 | 93 | 1003.0 |
| 20260507051433 | 13 | 105 | 0.0 | 0.0 | 0.00 | 0.00 | 0.00 | 93 | 1003.0 |
| 20260507050945 | 14 | 105 | 0.0 | 0.0 | 0.00 | 0.00 | 0.00 | 93 | 1003.0 |
| 20260507050434 | 14 | 105 | 0.0 | 0.0 | 0.00 | 0.00 | 0.00 | 94 | 1003.0 |
| 20260507045940 | 13 | 105 | 0.0 | 0.0 | 0.00 | 0.00 | 0.00 | 94 | 1003.0 |
| 20260507045450 | 13 | 105 | 0.0 | 0.0 | 0.00 | 0.00 | 0.00 | 94 | 1003.0 |
| 20260507044937 | 13 | 105 | 0.0 | 0.0 | 0.00 | 0.00 | 0.00 | 93 | 1003.0 |
| 20260507044442 | 13 | 105 | 0.0 | 0.0 | 0.00 | 0.00 | 0.00 | 92 | 1003.0 |
| 20260507043946 | 13 | 105 | 0.0 | 0.0 | 0.00 | 0.00 | 0.00 | 92 | 1002.6 |
| 20260507043438 | 13 | 105 | 0.0 | 0.0 | 0.00 | 0.00 | 0.00 | 93 | 1002.6 |
| 20260507042932 | 13 | 105 | 0.0 | 0.0 | 0.00 | 0.00 | 0.00 | 93 | 1002.6 |
| 20260507042439 | 13 | 105 | 0.0 | 0.0 | 0.00 | 0.00 | 0.00 | 93 | 1003.0 |
| 20260507041942 | 13 | 105 | 0.0 | 0.0 | 0.00 | 0.00 | 0.00 | 93 | 1003.0 |
| 20260507041448 | 13 | 105 | 0.0 | 0.0 | 0.00 | 0.00 | 0.00 | 93 | 1003.0 |
| 20260507040933 | 13 | 105 | 0.0 | 0.0 | 0.00 | 0.00 | 0.00 | 93 | 1003.1 |
| 20260507040444 | 13 | 105 | 0.0 | 0.0 | 0.00 | 0.00 | 0.00 | 93 | 1003.1 |
| 20260507040052 | 13 | 105 | 0.0 | 0.0 | 0.00 | 0.00 | 0.00 | 93 | 1003.1 |
| 20260507035515 | 13 | 105 | 0.0 | 0.0 | 0.00 | 0.00 | 0.05 | 93 | 1003.0 |
| 20260507034949 | 13 | 105 | 0.0 | 0.0 | 0.00 | 0.00 | 0.05 | 92 | 1003.0 |
| 20260507034439 | 13 | 105 | 9.7 | 0.0 | 0.00 | 0.00 | 0.05 | 92 | 1003.0 |
| 20260507034023 | 13 | 105 | 20.9 | 0.0 | 0.00 | 0.00 | 0.05 | 92 | 1003.0 |
| 20260507033456 | 13 | 227 | 25.7 | 0.0 | 0.00 | 0.00 | 0.05 | 90 | 1003.0 |
| 20260507033038 | 13 | 237 | 27.4 | 0.0 | 0.00 | 0.00 | 0.05 | 90 | 1003.0 |
| 20260507032452 | 13 | 221 | 25.7 | 0.0 | 0.00 | 0.00 | 0.05 | 90 | 1002.8 |
| 20260507032027 | 13 | 220 | 25.7 | 0.0 | 0.00 | 0.00 | 0.05 | 90 | 1002.8 |
| 20260507031453 | 13 | 234 | 12.9 | 0.0 | 0.00 | 0.00 | 0.05 | 89 | 1002.8 |
| 20260507030946 | 13 | 105 | 0.0 | 0.0 | 0.00 | 0.00 | 0.05 | 92 | 1002.5 |
| 20260507030517 | 13 | 105 | 0.0 | 0.0 | 0.00 | 0.00 | 0.05 | 92 | 1002.5 |
| 20260507030000 | 13 | 105 | 0.0 | 0.0 | 0.00 | 0.00 | 0.05 | 92 | 1002.5 |
| 20260507025514 | 13 | 105 | 0.0 | 0.0 | 0.00 | 0.00 | 0.05 | 92 | 1002.7 |
| 20260507024947 | 13 | 105 | 0.0 | 0.0 | 0.00 | 0.00 | 0.05 | 92 | 1002.7 |
| 20260507024518 | 13 | 105 | 0.0 | 0.0 | 0.00 | 0.00 | 0.05 | 92 | 1002.7 |
| 20260507024006 | 13 | 105 | 0.0 | 0.0 | 0.00 | 0.00 | 0.05 | 92 | 1002.5 |
| 20260507023522 | 13 | 105 | 0.0 | 0.0 | 0.00 | 0.00 | 0.05 | 93 | 1002.5 |
| 20260507022950 | 13 | 105 | 0.0 | 0.0 | 0.00 | 0.00 | 0.05 | 93 | 1002.5 |
| 20260507022026 | 13 | 105 | 0.0 | 0.0 | 0.00 | 0.00 | 0.05 | 93 | 1002.6 |
| 20260507021445 | 13 | 105 | 0.0 | 0.0 | 0.00 | 0.00 | 0.05 | 93 | 1002.6 |
| 20260507021018 | 13 | 105 | 0.0 | 0.0 | 0.00 | 0.00 | 0.05 | 93 | 1002.7 |
| 20260507020445 | 13 | 105 | 0.0 | 0.0 | 0.00 | 0.00 | 0.05 | 92 | 1002.7 |
| 20260507015946 | 13 | 105 | 11.3 | 0.0 | 0.00 | 0.00 | 0.05 | 92 | 1002.7 |
| 20260507015506 | 13 | 105 | 22.5 | 0.0 | 0.00 | 0.00 | 0.05 | 90 | 1003.0 |
| 20260507014938 | 13 | 225 | 27.4 | 0.0 | 0.00 | 0.00 | 0.05 | 89 | 1003.0 |
| 20260507014520 | 13 | 230 | 29.0 | 0.0 | 0.00 | 0.00 | 0.05 | 89 | 1003.0 |
| 20260507013955 | 13 | 228 | 32.2 | 0.0 | 0.00 | 0.00 | 0.05 | 89 | 1003.0 |
| 20260507013529 | 13 | 225 | 32.2 | 0.0 | 0.00 | 0.00 | 0.05 | 89 | 1003.0 |
| 20260507012949 | 13 | 223 | 33.8 | 0.0 | 0.00 | 0.00 | 0.05 | 89 | 1003.0 |
| 20260507012515 | 13 | 219 | 35.4 | 0.0 | 0.00 | 0.00 | 0.05 | 89 | 1003.2 |
| 20260507011950 | 13 | 224 | 37.0 | 0.0 | 0.00 | 0.00 | 0.05 | 89 | 1003.2 |
| 20260507011525 | 13 | 210 | 37.0 | 0.0 | 0.00 | 0.00 | 0.05 | 89 | 1003.2 |
| 20260507010955 | 13 | 211 | 35.4 | 0.0 | 0.00 | 0.00 | 0.05 | 89 | 1003.1 |
| 20260507010521 | 13 | 224 | 33.8 | 0.0 | 0.00 | 0.00 | 0.05 | 88 | 1003.1 |
| 20260507005514 | 13 | 232 | 6.4 | 0.0 | 0.00 | 0.00 | 0.05 | 88 | 1003.1 |
| 20260507004954 | 13 | 105 | 0.0 | 0.0 | 0.00 | 0.00 | 0.05 | 91 | 1003.1 |
| 20260507004513 | 13 | 105 | 9.7 | 0.0 | 0.00 | 0.00 | 0.05 | 91 | 1003.1 |
| 20260507003449 | 13 | 217 | 27.4 | 0.0 | 0.00 | 0.00 | 0.05 | 85 | 1003.1 |
| 20260507003049 | 13 | 227 | 25.7 | 0.0 | 0.00 | 0.00 | 0.05 | 85 | 1003.1 |
| 20260507002521 | 13 | 210 | 25.7 | 0.0 | 0.00 | 0.00 | 0.05 | 85 | 1003.1 |
| 20260507001956 | 13 | 216 | 25.7 | 0.0 | 0.00 | 0.00 | 0.05 | 85 | 1003.1 |
| 20260507001433 | 13 | 190 | 27.4 | 0.0 | 0.00 | 0.00 | 0.05 | 84 | 1003.1 |
| 20260507001030 | 13 | 231 | 27.4 | 0.0 | 0.00 | 0.00 | 0.05 | 85 | 1002.9 |
| 20260507000444 | 13 | 211 | 29.0 | 0.0 | 0.00 | 0.00 | 0.05 | 84 | 1002.9 |
| 20260507000003 | 13 | 229 | 27.4 | 0.0 | 0.00 | 0.00 | 0.05 | 84 | 1002.9 |
| 20260506235432 | 13 | 226 | 29.0 | 0.0 | 0.00 | 0.00 | 0.05 | 84 | 1002.7 |
| 20260506235010 | 13 | 234 | 32.2 | 0.0 | 0.00 | 0.00 | 0.05 | 84 | 1002.7 |
| 20260506234459 | 13 | 224 | 33.8 | 0.0 | 0.00 | 0.00 | 0.05 | 84 | 1002.7 |
| 20260506233952 | 13 | 264 | 33.8 | 0.0 | 0.00 | 0.00 | 0.05 | 84 | 1002.7 |
| 20260506233522 | 13 | 227 | 33.8 | 0.0 | 0.00 | 0.00 | 0.05 | 84 | 1002.7 |
| 20260506232954 | 13 | 223 | 33.8 | 0.0 | 0.00 | 0.00 | 0.05 | 84 | 1002.7 |
| 20260506232548 | 13 | 0.0 | 0.0 | 0.00 | 0.00 | 0.05 | 84 | 1003.0 | |
| 20260506232011 | 13 | 228 | 30.6 | 0.0 | 0.00 | 0.00 | 0.05 | 84 | 1003.0 |
| 20260506231448 | 13 | 221 | 29.0 | 0.0 | 0.00 | 0.00 | 0.05 | 84 | 1003.0 |
| 20260506230951 | 13 | 184 | 29.0 | 0.0 | 0.00 | 0.00 | 0.05 | 84 | 1003.1 |
| 20260506230450 | 13 | 211 | 29.0 | 0.0 | 0.00 | 0.00 | 0.05 | 84 | 1003.1 |
| 20260506230017 | 13 | 225 | 27.4 | 0.0 | 0.00 | 0.00 | 0.05 | 85 | 1003.1 |
| 20260506225503 | 13 | 228 | 27.4 | 0.0 | 0.00 | 0.00 | 0.05 | 84 | 1003.2 |
| 20260506224941 | 13 | 202 | 30.6 | 0.0 | 0.00 | 0.00 | 0.05 | 85 | 1003.2 |
| 20260506224510 | 13 | 199 | 30.6 | 0.0 | 0.00 | 0.00 | 0.05 | 85 | 1003.2 |
| 20260506223951 | 13 | 204 | 29.0 | 0.0 | 0.00 | 0.00 | 0.05 | 85 | 1003.5 |
| 20260506223434 | 13 | 190 | 29.0 | 0.0 | 0.00 | 0.00 | 0.05 | 84 | 1003.5 |
| 20260506223020 | 13 | 219 | 29.0 | 0.0 | 0.00 | 0.00 | 0.05 | 84 | 1003.5 |
| 20260506222457 | 13 | 222 | 29.0 | 0.0 | 0.00 | 0.00 | 0.05 | 84 | 1003.6 |
| 20260506221938 | 13 | 245 | 27.4 | 0.0 | 0.00 | 0.00 | 0.05 | 84 | 1003.6 |
| 20260506221504 | 13 | 218 | 27.4 | 0.0 | 0.00 | 0.00 | 0.05 | 84 | 1003.6 |
| 20260506220940 | 13 | 213 | 22.5 | 0.0 | 0.00 | 0.00 | 0.05 | 84 | 1003.7 |
| 20260506220517 | 13 | 198 | 4.8 | 0.0 | 0.00 | 0.00 | 0.05 | 89 | 1003.7 |
| 20260506220002 | 14 | 104 | 0.0 | 0.0 | 0.00 | 0.00 | 0.05 | 89 | 1003.7 |
| 20260506215534 | 14 | 105 | 0.0 | 0.0 | 0.00 | 0.00 | 0.05 | 88 | 1003.7 |
| 20260506214935 | 14 | 105 | 22.5 | 0.0 | 0.00 | 0.00 | 0.05 | 88 | 1003.7 |
| 20260506214503 | 14 | 221 | 33.8 | 0.0 | 0.00 | 0.00 | 0.05 | 85 | 1003.7 |
| 20260506214012 | 13 | 212 | 32.2 | 0.0 | 0.00 | 0.00 | 0.05 | 86 | 1003.8 |
| 20260506213458 | 13 | 208 | 32.2 | 0.0 | 0.00 | 0.00 | 0.05 | 86 | 1003.8 |
| 20260506212946 | 13 | 205 | 30.6 | 0.0 | 0.00 | 0.00 | 0.03 | 86 | 1003.8 |
| 20260506145524 | 17 | 192 | 33.8 | 0.0 | 0.00 | 0.00 | 0.00 | 68 | 1006.3 |
| 20260506144450 | 17 | 208 | 30.6 | 0.0 | 0.00 | 0.00 | 0.00 | 68 | 1006.3 |
| 20260506143944 | 17 | 197 | 30.6 | 0.0 | 0.00 | 0.00 | 0.00 | 68 | 1006.4 |
| 20260506143527 | 17 | 206 | 32.2 | 0.0 | 0.00 | 0.00 | 0.00 | 69 | 1006.4 |
| 20260506142958 | 17 | 246 | 32.2 | 0.0 | 0.00 | 0.00 | 0.00 | 70 | 1006.4 |
| 20260506142449 | 17 | 229 | 24.1 | 0.0 | 0.00 | 0.00 | 0.00 | 70 | 1006.4 |
| 20260506142038 | 17 | 223 | 9.7 | 0.0 | 0.00 | 0.00 | 0.00 | 69 | 1006.4 |
| 20260506140957 | 16 | 105 | 0.0 | 0.0 | 0.00 | 0.00 | 0.00 | 77 | 1006.4 |
| 20260506140538 | 16 | 104 | 0.0 | 0.0 | 0.00 | 0.00 | 0.00 | 77 | 1006.4 |
| 20260506135948 | 17 | 105 | 0.0 | 0.0 | 0.00 | 0.00 | 0.00 | 77 | 1006.4 |
| 20260506135511 | 16 | 104 | 0.0 | 0.0 | 0.00 | 0.00 | 0.00 | 78 | 1007.0 |
| 20260506134020 | 15 | 196 | 32.2 | 0.0 | 0.00 | 0.00 | 0.00 | 77 | 1007.1 |
| 20260506133509 | 15 | 210 | 32.2 | 0.0 | 0.00 | 0.00 | 0.00 | 77 | 1007.1 |
| 20260506132942 | 15 | 193 | 25.7 | 0.0 | 0.00 | 0.00 | 0.00 | 78 | 1007.1 |
| 20260506132435 | 15 | 213 | 9.7 | 0.0 | 0.00 | 0.00 | 0.00 | 78 | 1007.0 |
| 20260506131454 | 15 | 104 | 0.0 | 0.0 | 0.00 | 0.00 | 0.00 | 82 | 1007.0 |
| 20260506131041 | 15 | 104 | 0.0 | 0.0 | 0.00 | 0.00 | 0.00 | 82 | 1007.1 |
| 20260506130517 | 15 | 103 | 0.0 | 0.0 | 0.00 | 0.00 | 0.00 | 82 | 1007.1 |
| 20260506125506 | 15 | 105 | 9.7 | 0.0 | 0.00 | 0.00 | 0.00 | 83 | 1007.2 |
| 20260506124948 | 15 | 104 | 29.0 | 0.0 | 0.00 | 0.00 | 0.00 | 78 | 1007.2 |
| 20260506124524 | 15 | 224 | 30.6 | 0.0 | 0.00 | 0.00 | 0.00 | 78 | 1007.2 |
| 20260506124028 | 15 | 232 | 32.2 | 0.0 | 0.00 | 0.00 | 0.00 | 78 | 1006.7 |
| 20260506123016 | 15 | 105 | 29.0 | 0.0 | 0.00 | 0.00 | 0.00 | 78 | 1006.7 |
| 20260506122002 | 14 | 223 | 32.2 | 0.0 | 0.00 | 0.00 | 0.00 | 79 | 1007.1 |
| 20260506121510 | 14 | 190 | 32.2 | 0.0 | 0.00 | 0.00 | 0.00 | 79 | 1007.1 |
| 20260506120951 | 14 | 211 | 30.6 | 0.0 | 0.00 | 0.00 | 0.00 | 79 | 1007.3 |
| 20260506120437 | 14 | 213 | 29.0 | 0.0 | 0.00 | 0.00 | 0.00 | 79 | 1007.3 |
| 20260506120024 | 14 | 280 | 29.0 | 0.0 | 0.00 | 0.00 | 0.00 | 80 | 1007.3 |
| 20260506115502 | 13 | 213 | 27.4 | 0.0 | 0.00 | 0.00 | 0.00 | 80 | 1007.6 |
| 20260506114942 | 13 | 218 | 30.6 | 0.0 | 0.00 | 0.00 | 0.00 | 80 | 1007.6 |
| 20260506114435 | 13 | 196 | 32.2 | 0.0 | 0.00 | 0.00 | 0.00 | 80 | 1007.6 |
| 20260506114017 | 13 | 206 | 29.0 | 0.0 | 0.00 | 0.00 | 0.00 | 80 | 1007.3 |
| 20260506113516 | 13 | 188 | 11.3 | 0.0 | 0.00 | 0.00 | 0.00 | 80 | 1007.3 |
| 20260506113004 | 13 | 105 | 0.0 | 0.0 | 0.00 | 0.00 | 0.00 | 87 | 1007.3 |
| 20260506112550 | 13 | 105 | 0.0 | 0.0 | 0.00 | 0.00 | 0.00 | 87 | 1007.2 |
| 20260506112005 | 13 | 104 | 0.0 | 0.0 | 0.00 | 0.00 | 0.00 | 87 | 1007.2 |
| 20260506111546 | 13 | 105 | 0.0 | 0.0 | 0.00 | 0.00 | 0.00 | 87 | 1007.2 |
| 20260506111006 | 13 | 105 | 0.0 | 0.0 | 0.00 | 0.00 | 0.00 | 87 | 1007.3 |
| 20260506110528 | 13 | 105 | 0.0 | 0.0 | 0.00 | 0.00 | 0.00 | 87 | 1007.3 |
| 20260506110003 | 13 | 105 | 0.0 | 0.0 | 0.00 | 0.00 | 0.00 | 87 | 1007.3 |
| 20260506105442 | 13 | 104 | 0.0 | 0.0 | 0.00 | 0.00 | 0.00 | 87 | 1007.6 |
| 20260506105024 | 13 | 105 | 0.0 | 0.0 | 0.00 | 0.00 | 0.00 | 87 | 1007.6 |
| 20260506104503 | 13 | 105 | 0.0 | 0.0 | 0.00 | 0.00 | 0.00 | 87 | 1007.6 |
| 20260506103945 | 13 | 105 | 0.0 | 0.0 | 0.00 | 0.00 | 0.00 | 87 | 1007.5 |
| 20260506103526 | 13 | 105 | 0.0 | 0.0 | 0.00 | 0.00 | 0.00 | 87 | 1007.5 |
| 20260506103008 | 13 | 105 | 0.0 | 0.0 | 0.00 | 0.00 | 0.00 | 87 | 1007.5 |
| 20260506102454 | 13 | 104 | 0.0 | 0.0 | 0.00 | 0.00 | 0.00 | 87 | 1007.2 |
| 20260506101948 | 13 | 105 | 0.0 | 0.0 | 0.00 | 0.00 | 0.00 | 87 | 1007.2 |